TimeCEST,TemperatureF,Dew PointF,Humidity,Sea Level PressureIn,VisibilityMPH,Wind Direction,Wind SpeedMPH,Gust SpeedMPH,PrecipitationIn,Events,Conditions,WindDirDegrees,DateUTC
12:20 AM,59.0,55.4,88,30.18,-9999.0,SE,9.2,-,N/A,,Clear,140,2012-10-22 22:20:00
12:50 AM,60.8,51.8,72,30.18,-9999.0,SE,9.2,-,N/A,,Clear,140,2012-10-22 22:50:00
1:20 AM,59.0,51.8,77,30.18,-9999.0,Variable,1.2,-,N/A,,Clear,0,2012-10-22 23:20:00
1:50 AM,55.4,51.8,88,30.18,-9999.0,North,2.3,-,N/A,,Clear,350,2012-10-22 23:50:00
2:00 AM,56,51,78,30.19,9,North,2.2,,,,,350,2012-10-23 00:00:00
2:20 AM,55.4,51.8,88,30.18,5.0,Variable,1.2,-,N/A,,Unknown,0,2012-10-23 00:20:00
2:50 AM,55.4,50.0,82,30.18,5.0,NNE,2.3,-,N/A,,Unknown,30,2012-10-23 00:50:00
3:20 AM,55.4,50.0,82,30.18,3.7,Variable,1.2,-,N/A,,Unknown,0,2012-10-23 01:20:00
3:50 AM,55.4,51.8,88,30.18,3.7,ESE,2.3,-,N/A,,Unknown,120,2012-10-23 01:50:00
4:20 AM,55.4,53.6,94,30.18,5.0,Variable,2.3,-,N/A,,Unknown,0,2012-10-23 02:20:00
4:50 AM,55.4,51.8,88,30.18,5.0,SE,3.5,-,N/A,,Unknown,130,2012-10-23 02:50:00
5:20 AM,55.4,51.8,88,30.18,4.3,Variable,2.3,-,N/A,,Unknown,0,2012-10-23 03:20:00
5:50 AM,55.4,51.8,88,30.18,4.3,SSE,2.3,-,N/A,,Unknown,150,2012-10-23 03:50:00
6:50 AM,53.6,51.8,94,30.18,5.0,SSE,3.5,-,N/A,,Unknown,150,2012-10-23 04:50:00
7:20 AM,53.6,50.0,88,30.18,5.0,SE,5.8,-,N/A,,Unknown,140,2012-10-23 05:20:00
7:50 AM,53.6,50.0,88,30.18,3.1,SE,5.8,-,N/A,,Mist,140,2012-10-23 05:50:00
8:00 AM,53,50,87,30.21,3,SE,4.5,,,,Mist,140,2012-10-23 06:00:00
8:20 AM,53.6,50.0,88,30.18,3.1,Variable,1.2,-,N/A,,Mist,0,2012-10-23 06:20:00
8:50 AM,53.6,50.0,88,30.21,3.1,Variable,2.3,-,N/A,,Mist,0,2012-10-23 06:50:00
9:20 AM,55.4,50.0,82,30.21,3.7,Variable,2.3,-,N/A,,Unknown,0,2012-10-23 07:20:00
9:50 AM,53.6,50.0,88,30.21,3.1,SE,3.5,-,N/A,,Mist,140,2012-10-23 07:50:00
10:20 AM,55.4,50.0,82,30.21,3.7,Variable,1.2,-,N/A,,Unknown,0,2012-10-23 08:20:00
10:50 AM,59.0,51.8,77,30.21,4.3,Variable,1.2,-,N/A,,Unknown,0,2012-10-23 08:50:00
11:20 AM,60.8,50.0,68,30.21,5.0,Variable,2.3,-,N/A,,Unknown,0,2012-10-23 09:20:00
11:50 AM,62.6,46.4,55,30.21,5.0,NE,5.8,-,N/A,,Unknown,50,2012-10-23 09:50:00
12:20 PM,64.4,48.2,56,30.21,5.0,NNE,4.6,-,N/A,,Unknown,30,2012-10-23 10:20:00
12:50 PM,66.2,51.8,60,30.21,-9999.0,NNE,8.1,-,N/A,,Clear,20,2012-10-23 10:50:00
1:20 PM,64.4,50.0,59,30.21,-9999.0,NNE,8.1,-,N/A,,Clear,30,2012-10-23 11:20:00
1:50 PM,66.2,50.0,56,30.21,-9999.0,NE,6.9,-,N/A,,Clear,40,2012-10-23 11:50:00
2:00 PM,66,50,45,30.20,12,NE,6.7,,,,Clear,40,2012-10-23 12:00:00
2:20 PM,66.2,50.0,56,30.18,-9999.0,NNE,8.1,-,N/A,,Clear,30,2012-10-23 12:20:00
2:50 PM,66.2,48.2,52,30.18,-9999.0,NE,9.2,-,N/A,,Clear,40,2012-10-23 12:50:00
3:20 PM,66.2,50.0,56,30.18,-9999.0,NNE,9.2,-,N/A,,Clear,30,2012-10-23 13:20:00
3:50 PM,66.2,50.0,56,30.18,-9999.0,NE,10.4,-,N/A,,Clear,40,2012-10-23 13:50:00
4:20 PM,66.2,50.0,56,30.18,-9999.0,NE,9.2,-,N/A,,Clear,50,2012-10-23 14:20:00
4:50 PM,64.4,48.2,56,30.18,-9999.0,NNE,8.1,-,N/A,,Clear,30,2012-10-23 14:50:00
5:00 PM,64,49,47,30.18,12,NNE,8.9,,,,Clear,30,2012-10-23 15:00:00
5:20 PM,62.6,50.0,63,30.18,-9999.0,NNE,8.1,-,N/A,,Clear,30,2012-10-23 15:20:00
5:50 PM,60.8,50.0,68,30.18,-9999.0,NE,9.2,-,N/A,,Clear,40,2012-10-23 15:50:00
6:20 PM,59.0,50.0,72,30.18,-9999.0,NE,9.2,-,N/A,,Clear,50,2012-10-23 16:20:00
6:50 PM,57.2,50.0,77,30.18,5.0,NE,8.1,-,N/A,,Unknown,40,2012-10-23 16:50:00
7:20 PM,57.2,50.0,77,30.18,4.3,NE,5.8,-,N/A,,Unknown,50,2012-10-23 17:20:00
7:50 PM,55.4,50.0,82,30.18,3.7,NE,5.8,-,N/A,,Unknown,40,2012-10-23 17:50:00
8:00 PM,55,49,75,30.19,4,NE,6.7,,,,Clear,40,2012-10-23 18:00:00
8:20 PM,55.4,50.0,82,30.18,3.7,ENE,5.8,-,N/A,,Unknown,60,2012-10-23 18:20:00
8:50 PM,55.4,50.0,82,30.18,3.7,ENE,5.8,-,N/A,,Unknown,60,2012-10-23 18:50:00
9:20 PM,53.6,48.2,82,30.18,3.7,NE,6.9,-,N/A,,Unknown,40,2012-10-23 19:20:00
9:50 PM,53.6,48.2,82,30.18,3.7,NE,3.5,-,N/A,,Unknown,40,2012-10-23 19:50:00
10:20 PM,53.6,48.2,82,30.18,4.3,ENE,3.5,-,N/A,,Unknown,60,2012-10-23 20:20:00
10:50 PM,53.6,48.2,82,30.18,3.7,NE,3.5,-,N/A,,Unknown,50,2012-10-23 20:50:00
11:00 PM,53,48,76,30.19,4,NE,2.2,,,,Clear,50,2012-10-23 21:00:00
11:20 PM,53.6,48.2,82,30.18,4.3,East,3.5,-,N/A,,Unknown,90,2012-10-23 21:20:00
11:50 PM,53.6,48.2,82,30.18,4.3,Variable,2.3,-,N/A,,Unknown,0,2012-10-23 21:50:00